West Palm Beach, FL

5:08 PM EST on December 08, 2019 (GMT -0500)
Palm Beach International

Weather History for KPBI - October, 2019

Change the Weather History Date:

Wednesday, October 23, 2019

  Actual Average Record
Temperature  
Mean Temperature 82 °F 77 °F  
Max Temperature 88 °F 84 °F 92 °F (1959)
Min Temperature 75 °F 70 °F 47 °F (1923)
Degree Days  
Heating Degree Days 0 0  
Month to date heating degree days 0 0  
Since 1 July heating degree days 0 0  
Cooling Degree Days 17 12  
Month to date cooling degree days 390 323  
Year to date cooling degree days 4099 3531  
Growing Degree Days 32 (Base 50)    
Moisture  
Dew Point 74 °F    
Average Humidity 77    
Maximum Humidity 94    
Minimum Humidity 59    
Precipitation  
Precipitation 0.00 in 0.16 in 8.47 in (1933)
Month to date precipitation 4.28 3.94  
Year to date precipitation 52.27 53.01  
Snow  
Snow 0.00 in - - ()
Month to date snowfall 0.0  
Since 1 July snowfall 0.0  
Since 1 September snowfall 0.0  
Snow Depth 0.00 in    
Sea Level Pressure  
Sea Level Pressure 30.01 in    
Wind  
Wind Speed 6 mph (NE)    
Max Wind Speed 13 mph    
Max Gust Speed 19 mph    
Visibility 10 miles    
Events      
T = Trace of Precipitation, MM = Missing Value Source: NWS Daily Summary

Daily Weather History Graph

Daily Weather History Graph

Search for Another Location

Airport or City:

Astronomy

Oct. 23, 2019 Rise Set
Actual Time 7:24 AM EDT 6:44 PM EDT
Civil Twilight 7:00 AM EDT 7:08 PM EDT
Nautical Twilight 6:33 AM EDT 7:35 PM EDT
Astronomical Twilight 6:06 AM EDT 8:02 PM EDT
Moon 2:21 AM EDT (10/23) 3:57 PM EDT (10/23)
Length of Visible Light 12h 07m
Length of Day
11h 20m
Waning Crescent, 27% of the Moon is Illuminated
Oct 23
Waning Crescent
Oct 27
New
Nov 4
First Quarter
Nov 12
Full
Nov 19
Last Quarter

Hourly Weather History & Observations

Time (EDT) Temp. Heat Index Dew Point Humidity Pressure Visibility Wind Dir Wind Speed Gust Speed Precip Events Conditions
12:40 AM 79.0 °F - 75.9 °F 90% 30.01 in 10.0 mi NW 4.6 mph - N/A   Mostly Cloudy
12:53 AM 80.1 °F 85.4 °F 75.9 °F 87% 30.01 in 10.0 mi NW 6.9 mph - N/A   Mostly Cloudy
1:05 AM 80.1 °F 85.1 °F 75.0 °F 85% 30.00 in 10.0 mi NNW 3.5 mph - N/A   Mostly Cloudy
1:53 AM 79.0 °F - 75.0 °F 88% 29.99 in 10.0 mi Calm Calm - N/A   Partly Cloudy
2:53 AM 80.1 °F 85.1 °F 75.0 °F 85% 29.98 in 10.0 mi NNE 3.5 mph - N/A   Partly Cloudy
3:53 AM 78.1 °F - 75.0 °F 90% 29.97 in 10.0 mi North 4.6 mph - N/A   Scattered Clouds
4:53 AM 79.0 °F - 73.0 °F 82% 29.97 in 10.0 mi North 4.6 mph - N/A   Mostly Cloudy
5:53 AM 77.0 °F - 72.0 °F 84% 29.97 in 10.0 mi NNW 5.8 mph - N/A   Partly Cloudy
6:53 AM 75.9 °F - 72.0 °F 87% 29.99 in 10.0 mi North 4.6 mph - N/A   Scattered Clouds
7:53 AM 75.9 °F - 73.0 °F 91% 29.99 in 10.0 mi NNW 4.6 mph - N/A   Scattered Clouds
8:53 AM 77.0 °F - 73.0 °F 88% 30.01 in 10.0 mi SE 3.5 mph - N/A   Scattered Clouds
9:53 AM 82.0 °F 89.4 °F 75.9 °F 82% 30.02 in 10.0 mi NNW 5.8 mph - N/A   Mostly Cloudy
10:40 AM 82.0 °F 89.4 °F 75.9 °F 82% 30.03 in 10.0 mi NW 4.6 mph - N/A   Mostly Cloudy
10:53 AM 82.9 °F 90.8 °F 75.9 °F 79% 30.03 in 10.0 mi Calm Calm - N/A   Mostly Cloudy
11:09 AM 84.0 °F 92.6 °F 75.9 °F 76% 30.02 in 10.0 mi Calm Calm - N/A   Mostly Cloudy
11:53 AM 84.9 °F 93.3 °F 75.0 °F 72% 30.03 in 10.0 mi Variable 5.8 mph - N/A   Mostly Cloudy
12:53 PM 87.1 °F 94.5 °F 73.0 °F 63% 30.01 in 10.0 mi Calm Calm - N/A   Mostly Cloudy
1:53 PM 87.1 °F 94.5 °F 73.0 °F 63% 29.99 in 10.0 mi ESE 10.4 mph - N/A   Scattered Clouds
2:53 PM 87.1 °F 93.6 °F 72.0 °F 61% 29.99 in 10.0 mi ESE 10.4 mph - N/A   Scattered Clouds
3:53 PM 86.0 °F 93.0 °F 73.0 °F 65% 29.98 in 10.0 mi ESE 9.2 mph - N/A   Scattered Clouds
4:53 PM 84.9 °F 90.7 °F 72.0 °F 65% 29.99 in 10.0 mi East 8.1 mph - N/A   Scattered Clouds
5:53 PM 82.9 °F 88.8 °F 73.0 °F 72% 30.00 in 10.0 mi East 6.9 mph - N/A   Scattered Clouds
6:53 PM 82.9 °F 88.8 °F 73.0 °F 72% 30.02 in 10.0 mi ENE 9.2 mph - N/A   Mostly Cloudy
7:53 PM 82.9 °F 88.8 °F 73.0 °F 72% 30.03 in 10.0 mi ENE 5.8 mph - N/A   Scattered Clouds
8:53 PM 82.9 °F 88.8 °F 73.0 °F 72% 30.04 in 10.0 mi East 5.8 mph - N/A   Scattered Clouds
9:53 PM 82.0 °F 88.6 °F 75.0 °F 79% 30.06 in 10.0 mi ENE 4.6 mph - N/A   Scattered Clouds
10:53 PM 82.0 °F 86.7 °F 72.0 °F 71% 30.07 in 10.0 mi East 10.4 mph - N/A   Scattered Clouds
11:53 PM 82.0 °F 87.4 °F 73.0 °F 74% 30.06 in 10.0 mi East 10.4 mph - N/A   Scattered Clouds